Location: Beneden-Haastrecht
(52.0012°N, 4.7557°E)
Time: 10:57:35
(UTC+00:00)

X-37B - Pass Details

Date: 28 January 2021
Orbit: 383 x 391 km, 45.0° (Epoch: 27 February)

Event Time Altitude Azimuth Distance (km) Brightness Sun altitude
Rises 17:44:07 0° 258° (WSW) 2,273 6.6 -12.6°
Reaches altitude 10° 17:46:31 10° 241° (WSW) 1,418 4.7 -13.0°
Maximum altitude 17:48:56 20° 192° (SSW) 974 2.9 -13.3°
Drops below altitude 10° 17:51:21 10° 143° (SE) 1,419 3.2 -13.7°
Enters shadow 17:51:36 - 140° (SE) 1,500 3.3 -13.7°
